TimePST,TemperatureF,Dew PointF,Humidity,Sea Level PressureIn,VisibilityMPH,Wind Direction,Wind SpeedMPH,Gust SpeedMPH,PrecipitationIn,Events,Conditions,WindDirDegrees,DateUTC
12:58 AM,41.2,34.7,78,30.07,10.0,ENE,3.5,-,N/A,,Clear,60,2013-01-03 08:58:00
1:58 AM,38.3,34.0,84,30.08,10.0,NNE,2.3,-,N/A,,Clear,20,2013-01-03 09:58:00
2:58 AM,37.4,32.7,83,30.07,10.0,NNE,1.2,-,N/A,,Clear,30,2013-01-03 10:58:00
3:58 AM,37.0,33.4,87,30.07,10.0,North,2.3,-,N/A,,Clear,360,2013-01-03 11:58:00
4:58 AM,38.3,32.5,80,30.07,10.0,NNE,2.3,-,N/A,,Clear,20,2013-01-03 12:58:00
5:58 AM,37.4,31.6,80,30.08,10.0,West,2.3,-,N/A,,Clear,270,2013-01-03 13:58:00
6:58 AM,37.0,31.5,80,30.10,10.0,West,3.5,-,N/A,,Clear,260,2013-01-03 14:58:00
7:58 AM,38.5,32.7,80,30.12,10.0,NE,2.3,-,N/A,,Clear,50,2013-01-03 15:58:00
8:58 AM,48.4,35.2,60,30.14,10.0,North,2.3,-,N/A,,Clear,360,2013-01-03 16:58:00
9:58 AM,57.7,33.8,41,30.15,10.0,North,5.8,-,N/A,,Clear,350,2013-01-03 17:58:00
10:58 AM,67.8,20.5,17,30.13,10.0,ENE,5.8,-,N/A,,Clear,70,2013-01-03 18:58:00
11:58 AM,66.2,43.2,43,30.10,10.0,South,10.4,-,N/A,,Clear,190,2013-01-03 19:58:00
12:58 PM,65.5,37.6,36,30.09,10.0,SSW,8.1,-,N/A,,Clear,200,2013-01-03 20:58:00
1:58 PM,66.9,40.3,38,30.08,10.0,SW,6.9,-,N/A,,Clear,220,2013-01-03 21:58:00
2:58 PM,68.4,32.7,27,30.09,10.0,SW,5.8,-,N/A,,Clear,230,2013-01-03 22:58:00
3:58 PM,64.9,32.2,29,30.10,10.0,SW,8.1,-,N/A,,Clear,220,2013-01-03 23:58:00
4:58 PM,59.9,36.5,42,30.10,10.0,SSE,3.5,-,N/A,,Clear,160,2013-01-04 00:58:00
5:58 PM,55.4,41.4,59,30.12,10.0,SE,3.5,-,N/A,,Clear,130,2013-01-04 01:58:00
6:58 PM,53.8,42.8,66,30.13,10.0,East,3.5,-,N/A,,Clear,80,2013-01-04 02:58:00
7:58 PM,48.2,42.6,81,30.15,10.0,ENE,5.8,-,N/A,,Clear,70,2013-01-04 03:58:00
8:58 PM,48.9,41.7,76,30.16,10.0,East,3.5,-,N/A,,Clear,80,2013-01-04 04:58:00
9:58 PM,46.8,41.0,80,30.17,10.0,Calm,Calm,-,N/A,,Clear,0,2013-01-04 05:58:00
10:58 PM,44.8,37.9,77,30.18,10.0,NNE,2.3,-,N/A,,Clear,20,2013-01-04 06:58:00
11:58 PM,43.0,35.4,75,30.19,10.0,NE,3.5,-,N/A,,Clear,50,2013-01-04 07:58:00